Weather History for Mcnabs Island, NS

Change the Weather History Date:

Wednesday, December 7, 2011

  Actual Average Record
Temperature  
Mean Temperature 48 °F -  
Max Temperature 52 °F - - ()
Min Temperature 45 °F - - ()
Degree Days  
Heating Degree Days 16    
Moisture  
Dew Point 47 °F    
Average Humidity 98    
Maximum Humidity 99    
Minimum Humidity 95    
Precipitation  
Precipitation 0.00 in - - ()
Sea Level Pressure  
Sea Level Pressure 29.83 in    
Wind  
Wind Speed 9 mph ()    
Max Wind Speed 18 mph    
Max Gust Speed 25 mph    
T = Trace of Precipitation, MM = Missing Value Source: Averaged Metar Reports

Daily Weather History Graph

Daily Weather History Graph

Search for Another Location

Airport:

Trip Planner

Search our weather history database for the weather conditions in past years. The results will help you decide how hot, cold, wet, or windy it might be!

Date:

Astronomy

Dec. 07, 2011 Rise Set
Actual Time 7:36 AM AST 4:34 PM AST
Civil Twilight 7:03 AM AST 5:07 PM AST
Nautical Twilight 6:27 AM AST 5:43 PM AST
Astronomical Twilight 5:51 AM AST 6:19 PM AST
Moon 2:34 PM AST (12/7) 4:44 AM AST (12/7)
Length of Visible Light 10h 03m
Length of Day
8h 57m
Waxing Gibbous, 92% of the Moon is Illuminated
Dec 7
Waxing Gibbous
Dec 10
Full
Dec 17
Last Quarter
Dec 24
New
Jan 1
First Quarter

Hourly Weather History & Observations

Time (AST) Temp. Windchill Dew Point Humidity Pressure Visibility Wind Dir Wind Speed Gust Speed Precip Events Conditions
12:00 AM 52.0 °F - 50.5 °F 95% 29.95 in - SW 18.4 mph 25.3 mph N/A   Unknown
1:00 AM 52.2 °F - 50.7 °F 95% 29.93 in - SW 17.3 mph - N/A   Unknown
2:00 AM 52.3 °F - 50.9 °F 95% 29.91 in - SW 15.0 mph - N/A   Unknown
4:00 AM 51.4 °F - 50.5 °F 97% 29.89 in - SW 13.8 mph - N/A   Unknown
5:00 AM 50.7 °F - 50.0 °F 97% 29.88 in - NW 3.5 mph - N/A   Unknown
6:00 AM 46.2 °F 41.7 °F 45.7 °F 98% 29.87 in - NNW 9.2 mph - N/A   Unknown
7:00 AM 45.9 °F 41.2 °F 45.5 °F 99% 29.88 in - NNW 9.2 mph - N/A   Unknown
8:00 AM 45.9 °F 42.3 °F 45.1 °F 97% 29.87 in - NNW 6.9 mph - N/A   Unknown
10:00 AM 46.6 °F - 45.7 °F 97% 29.89 in - WNW 4.6 mph - N/A   Unknown
11:00 AM 46.4 °F 45.2 °F 45.9 °F 98% 29.88 in - North 3.5 mph - N/A   Unknown
12:00 PM 47.1 °F - 46.6 °F 98% 29.82 in - ESE 2.3 mph - N/A   Unknown
1:00 PM 47.5 °F - 46.9 °F 98% 29.83 in - WNW 4.6 mph - N/A   Unknown
2:00 PM 46.9 °F - 46.4 °F 98% 29.80 in - SSE 5.8 mph - N/A   Unknown
3:00 PM 46.6 °F - 46.2 °F 99% 29.80 in - SE 4.6 mph - N/A   Unknown
4:00 PM 46.6 °F - 46.2 °F 99% 29.80 in - ESE 4.6 mph - N/A   Unknown
5:00 PM 46.8 °F - 46.4 °F 99% 29.79 in - ESE 9.2 mph - N/A   Unknown
6:00 PM 47.1 °F - 46.8 °F 99% 29.78 in - NNE 3.5 mph - N/A   Unknown
7:00 PM 47.3 °F - 46.9 °F 99% 29.77 in - ESE 5.8 mph - N/A   Unknown
9:00 PM 47.1 °F - 46.8 °F 99% 29.75 in - ESE 5.8 mph - N/A   Unknown
10:00 PM 47.7 °F - 47.3 °F 99% 29.71 in - ESE 6.9 mph - N/A   Unknown
11:00 PM 47.7 °F - 47.3 °F 99% 29.69 in - SSE 8.1 mph - N/A   Unknown